Weather History for St. Joseph, MO

Change the Weather History Date:

Tuesday, January 15, 2013

  Actual Average Record
Temperature  
Mean Temperature 23 °F 27 °F  
Max Temperature 34 °F 37 °F 66 °F (2006)
Min Temperature 12 °F 17 °F -16 °F (1979)
Degree Days  
Heating Degree Days 42 38  
Month to date heating degree days 545 573  
Since 1 July heating degree days 2641 2786  
Cooling Degree Days 0 0  
Month to date cooling degree days 0 0  
Year to date cooling degree days 0 0  
Moisture  
Dew Point 11 °F    
Average Humidity 64    
Maximum Humidity 92    
Minimum Humidity 36    
Precipitation  
Precipitation 0.00 in 0.01 in 0.75 in (1949)
Month to date precipitation 0.30 0.25  
Year to date precipitation 0.30 0.25  
Sea Level Pressure  
Sea Level Pressure 30.33 in    
Wind  
Wind Speed 2 mph (SSW)    
Max Wind Speed 7 mph    
Max Gust Speed 9 mph    
Visibility 10 miles    
Events      
T = Trace of Precipitation, MM = Missing Value Source: NWS Daily Summary

Daily Weather History Graph

Daily Weather History Graph

Search for Another Location

Airport:

Trip Planner

Search our weather history database for the weather conditions in past years. The results will help you decide how hot, cold, wet, or windy it might be!

Date:

Astronomy

Jan. 15, 2013 Rise Set
Actual Time 7:38 AM CST 5:19 PM CST
Civil Twilight 7:09 AM CST 5:49 PM CST
Nautical Twilight 6:36 AM CST 6:22 PM CST
Astronomical Twilight 6:03 AM CST 6:55 PM CST
Moon 9:45 AM CST (1/15) 10:09 PM CST (1/15)
Length of Visible Light 10h 40m
Length of Day
9h 40m
Waxing Crescent, 19% of the Moon is Illuminated
Jan 15
Waxing Crescent
Jan 18
First Quarter
Jan 26
Full
Feb 3
Last Quarter
Feb 10
New

Hourly Weather History & Observations

Time (CST) Temp. Windchill Dew Point Humidity Pressure Visibility Wind Dir Wind Speed Gust Speed Precip Events Conditions
12:53 AM 21.0 °F - 12.0 °F 68% 30.44 in 10.0 mi Calm Calm - N/A   Partly Cloudy
1:53 AM 18.0 °F - 12.9 °F 81% 30.42 in 10.0 mi Calm Calm - N/A   Partly Cloudy
3:53 AM 14.0 °F - 9.0 °F 80% 30.39 in 10.0 mi Calm Calm - N/A   Scattered Clouds
4:53 AM 16.0 °F - 10.9 °F 81% 30.40 in 10.0 mi Calm Calm - N/A   Overcast
5:53 AM 15.1 °F - 10.0 °F 80% 30.41 in 10.0 mi Calm Calm - N/A   Partly Cloudy
6:53 AM 12.9 °F - 10.0 °F 88% 30.42 in 10.0 mi Calm Calm - N/A   Overcast
7:53 AM 12.9 °F - 10.0 °F 88% 30.43 in 10.0 mi Calm Calm - N/A   Clear
8:53 AM 17.1 °F - 12.0 °F 81% 30.42 in 10.0 mi Calm Calm - N/A   Scattered Clouds
9:53 AM 21.9 °F - 14.0 °F 72% 30.40 in 10.0 mi Calm Calm - N/A   Clear
10:53 AM 25.0 °F 19.3 °F 12.9 °F 60% 30.40 in 10.0 mi South 4.6 mph - N/A   Clear
11:53 AM 28.0 °F 22.8 °F 8.1 °F 43% 30.36 in 10.0 mi SW 4.6 mph - N/A   Clear
12:53 PM 30.0 °F 25.2 °F 8.1 °F 40% 30.33 in 10.0 mi SW 4.6 mph - N/A   Clear
1:53 PM 30.9 °F - 8.1 °F 38% 30.30 in 10.0 mi Calm Calm - N/A   Clear
2:53 PM 32.0 °F - 8.1 °F 37% 30.30 in 10.0 mi Calm Calm - N/A   Clear
3:53 PM 32.0 °F 26.4 °F 9.0 °F 38% 30.29 in 10.0 mi Variable 5.8 mph - N/A   Clear
4:53 PM 30.9 °F 27.5 °F 12.0 °F 46% 30.28 in 10.0 mi SW 3.5 mph - N/A   Clear
5:53 PM 27.0 °F 23.0 °F 12.0 °F 53% 30.27 in 10.0 mi SSW 3.5 mph - N/A   Clear
6:53 PM 25.0 °F 20.7 °F 14.0 °F 63% 30.27 in 10.0 mi SSE 3.5 mph - N/A   Clear
7:53 PM 21.9 °F - 12.9 °F 68% 30.26 in 10.0 mi Calm Calm - N/A   Clear
8:53 PM 19.9 °F 13.4 °F 14.0 °F 78% 30.24 in 10.0 mi SSW 4.6 mph - N/A   Clear
9:53 PM 21.9 °F 17.2 °F 12.9 °F 68% 30.21 in 10.0 mi SSW 3.5 mph - N/A   Clear
10:53 PM 21.0 °F 16.2 °F 12.0 °F 68% 30.21 in 10.0 mi South 3.5 mph - N/A   Clear
11:53 PM 19.0 °F 11.1 °F 10.9 °F 71% 30.19 in 10.0 mi SSW 5.8 mph - N/A   Clear